Location: Unspecified
(0.0000°N, 0.0000°E)
Time: 03:19:04
(UTC+01:00)

Ariane H10 - Visible Passes

Search period start: 21 November 2014 00:00
Search period end: 01 December 2014 00:00
Orbit: 408 x 35122 km, 4.6° (Epoch: 19 November)

Date Brightness Start Highest point End Pass type
(mag) Time Alt. Az. Time Alt. Az. Time Alt. Az.
21 Nov 7.2 01:11:37 10° W 01:14:41 13° W 01:14:41 13° W visible
21 Nov 5.8 12:21:38 10° W 21:54:30 87° N 21:59:18 70° ENE visible
23 Nov 2.4 05:31:51 35° NW 05:33:06 59° N 05:42:00 10° E visible
23 Nov 10.6 17:15:13 10° W 18:18:12 17° W 20:01:04 10° W visible
24 Nov 5.7 13:01:32 10° W 22:35:31 83° NW 22:35:31 83° NW visible
25 Nov 6.0 09:31:33 10° W 09:45:24 87° S 19:18:28 10° E visible
26 Nov 3.2 06:07:42 12° WNW 06:11:09 73° N 06:28:14 10° E visible
27 Nov 5.9 13:42:34 10° W 23:11:39 61° WNW 23:11:39 61° WNW visible
28 Nov 6.4 10:09:25 10° W 19:12:29 88° S 19:56:17 15° E visible
30 Nov 6.3 14:25:26 10° W 23:47:43 40° W 23:47:43 40° W visible
